CW9386 Weather Reports


time (UTC)temp
F
wind
direction
speed
knots
gust
knots
rain 1hr
in
rain 24hr
in
rain mn
in
humidity
%
barometer
mb
20260509171721 83 277 0.0 7.0 0.00 0.00 0.00 14 1015.6
20260509170713 83 237 0.9 4.3 0.00 0.00 0.00 14 1015.6
20260509165710 82 259 2.6 5.2 0.00 0.00 0.00 15 1015.5
20260509164724 80 253 1.7 5.2 0.00 0.00 0.00 15 1015.5
20260509163718 79 237 2.6 5.2 0.00 0.00 0.00 17 1015.7
20260509162712 78 212 0.9 4.3 0.00 0.00 0.00 17 1015.6
20260509160725 77 308 2.6 5.2 0.00 0.00 0.00 19 1015.7
20260509155721 76 259 3.5 6.1 0.00 0.00 0.00 19 1015.7
20260509153727 76 205 2.6 5.2 0.00 0.00 0.00 20 1015.7
20260509152715 75 234 2.6 4.3 0.00 0.00 0.00 20 1015.8
20260509151709 75 207 2.6 7.0 0.00 0.00 0.00 21 1015.8
20260509150717 74 160 3.5 6.1 0.00 0.00 0.00 21 1015.8
20260509144719 72 259 2.6 5.2 0.00 0.00 0.00 24 1015.6
20260509143714 71 259 1.7 1.7 0.00 0.00 0.00 24 1015.7
20260509142709 70 269 0.9 1.7 0.00 0.00 0.00 25 1015.6
20260509141724 69 269 0.0 0.9 0.00 0.00 0.00 25 1015.6
20260509140719 68 269 0.0 1.7 0.00 0.00 0.00 27 1015.6
20260509135713 66 212 0.0 0.9 0.00 0.00 0.00 27 1015.6
20260509133707 64 182 0.0 0.9 0.00 0.00 0.00 29 1014.7
20260509132717 62 113 0.0 0.9 0.00 0.00 0.00 28 1014.8
20260509130711 58 94 4.3 7.0 0.00 0.00 0.00 32 1014.7
20260509125707 56 41 0.9 4.3 0.00 0.00 0.00 33 1014.8
20260509124716 55 40 1.7 4.3 0.00 0.00 0.00 33 1014.7
20260509123711 55 5 2.6 6.1 0.00 0.00 0.00 33 1014.6
20260509121721 56 173 1.7 3.5 0.00 0.00 0.00 33 1014.0
20260509120720 57 78 0.9 1.7 0.00 0.00 0.00 32 1013.5
20260509115715 58 84 2.6 4.3 0.00 0.00 0.00 31 1013.3
20260509114710 59 90 0.9 1.7 0.00 0.00 0.00 29 1014.1
20260509113712 59 11 0.0 0.9 0.00 0.00 0.00 28 1013.9
20260509112711 59 11 0.0 0.9 0.00 0.00 0.00 27 1013.8
20260509111710 60 10 0.0 0.9 0.00 0.00 0.00 27 1013.7
20260509105707 61 10 0.9 3.5 0.00 0.00 0.00 25 1013.7
20260509104702 62 360 2.6 3.5 0.00 0.00 0.00 25 1013.7
20260509103714 63 44 0.0 1.7 0.00 0.00 0.00 24 1013.5
20260509102709 64 58 0.9 2.6 0.00 0.00 0.00 24 1013.5
20260509101709 64 88 0.0 5.2 0.00 0.00 0.00 22 1013.5
20260509100715 64 97 1.7 3.5 0.00 0.00 0.00 22 1013.4
20260509095711 64 93 2.6 3.5 0.00 0.00 0.00 22 1012.4
20260509094707 65 102 1.7 5.2 0.00 0.00 0.00 22 1012.5
20260509093707 65 93 2.6 3.5 0.00 0.00 0.00 21 1012.4
20260509092704 65 97 2.6 6.1 0.00 0.00 0.00 21 1012.4
20260509091659 65 101 1.7 4.3 0.00 0.00 0.00 21 1012.5
20260509085716 66 90 3.5 6.1 0.00 0.00 0.00 21 1012.6
20260509084713 66 98 3.5 6.1 0.00 0.00 0.00 21 1012.7
20260509082718 67 96 0.9 3.5 0.00 0.00 0.00 20 1012.8
20260509081708 67 105 1.7 2.6 0.00 0.00 0.00 20 1012.6
20260509080700 68 91 0.9 3.5 0.00 0.00 0.00 19 1012.7
20260509075715 68 86 1.7 4.3 0.00 0.00 0.00 19 1012.9
20260509073711 68 107 1.7 3.5 0.00 0.00 0.00 19 1012.9
20260509072705 68 102 2.6 5.2 0.00 0.00 0.00 19 1012.9
20260509070711 68 105 1.7 3.5 0.00 0.00 0.00 19 1013.2
20260509065702 69 107 0.9 2.6 0.00 0.00 0.00 19 1013.2
20260509064714 69 97 0.9 2.6 0.00 0.00 0.00 18 1013.3
20260509062701 69 87 0.9 4.3 0.00 0.00 0.00 19 1013.2
20260509060712 69 99 1.7 6.1 0.00 0.00 0.00 19 1013.3
20260509055708 68 90 0.9 6.1 0.00 0.00 0.00 19 1013.4
20260509054707 67 97 2.6 6.1 0.00 0.00 0.00 20 1013.4
20260509053713 67 81 3.5 4.3 0.00 0.00 0.00 20 1013.5
20260509051712 68 82 2.6 4.3 0.00 0.00 0.00 19 1013.7
20260509050702 69 76 2.6 3.5 0.00 0.00 0.00 19 1013.8
20260509045659 70 88 3.5 3.5 0.00 0.00 0.00 18 1013.8
20260509044713 69 94 0.9 2.6 0.00 0.00 0.00 18 1013.8
20260509043709 69 105 1.7 3.5 0.00 0.00 0.00 19 1013.8
20260509042703 68 105 0.0 2.6 0.00 0.00 0.00 20 1013.7
20260509041702 68 90 1.7 3.5 0.00 0.00 0.00 20 1013.5
20260509040703 68 146 0.9 4.3 0.00 0.00 0.00 21 1013.5
20260509035701 69 94 1.7 2.6 0.00 0.00 0.00 21 1013.4
20260509034656 69 115 0.9 2.6 0.00 0.00 0.00 21 1013.1
20260509033657 70 71 1.7 4.3 0.00 0.00 0.00 20 1012.9
20260509032708 71 76 2.6 4.3 0.00 0.00 0.00 19 1012.8
20260509031704 72 72 2.6 4.3 0.00 0.00 0.00 18 1012.7
20260509030701 74 63 1.7 3.5 0.00 0.00 0.00 16 1012.5
20260509025657 77 88 0.9 1.7 0.00 0.00 0.00 14 1012.4
20260509024709 79 35 0.0 0.9 0.00 0.00 0.00 13 1012.2
20260509023707 80 34 0.0 0.9 0.00 0.00 0.00 12 1012.1
20260509022701 81 44 0.0 0.0 0.00 0.00 0.00 12 1011.9
20260509021711 82 46 0.0 1.7 0.00 0.00 0.00 11 1011.8
20260509020706 83 30 0.0 2.6 0.00 0.00 0.00 10 1011.8
20260509015702 84 360 1.7 3.5 0.00 0.00 0.00 9 1011.8
20260509013657 85 13 0.9 4.3 0.00 0.00 0.00 8 1011.6
20260509012711 86 355 2.6 4.3 0.00 0.00 0.00 8 1011.6
20260509011704 86 23 4.3 8.7 0.00 0.00 0.00 7 1011.5
20260509010702 87 9 5.2 10.4 0.00 0.00 0.00 7 1011.6
20260509005712 87 5 7.0 10.4 0.00 0.00 0.00 7 1011.6
20260509004704 88 355 7.0 8.7 0.00 0.00 0.00 7 1011.6
20260509003656 88 329 3.5 7.0 0.00 0.00 0.00 7 1011.6
20260509002652 88 12 1.7 10.4 0.00 0.00 0.00 8 1011.7
20260509000657 88 302 0.9 12.2 0.00 0.00 0.00 8 1011.7
20260508235653 87 325 0.9 13.0 0.00 0.00 0.00 8 1011.0
20260508233708 89 115 4.3 7.8 0.00 0.00 0.00 8 1011.0
20260508232702 89 347 6.1 9.6 0.00 0.00 0.00 8 1011.0
20260508231658 88 82 3.5 12.2 0.00 0.00 0.00 8 1011.0
20260508225707 88 11 5.2 9.6 0.00 0.00 0.00 8 1011.2
20260508224704 88 360 1.7 11.3 0.00 0.00 0.00 8 1011.2
20260508223701 88 342 10.4 14.8 0.00 0.00 0.00 8 1011.2
20260508222650 88 320 10.4 15.6 0.00 0.00 0.00 8 1011.3
20260508220702 88 336 1.7 13.0 0.00 0.00 0.00 8 1011.4
20260508215656 88 301 4.3 13.0 0.00 0.00 0.00 8 1011.4
20260508214650 88 281 1.7 6.1 0.00 0.00 0.00 8 1011.6
20260508213708 88 206 2.6 10.4 0.00 0.00 0.00 9 1011.7
20260508212705 88 13 3.5 8.7 0.00 0.00 0.00 9 1011.8
20260508211655 88 15 3.5 12.2 0.00 0.00 0.00 9 1011.9
20260508210648 87 346 3.5 13.0 0.00 0.00 0.00 9 1012.1
20260508205703 87 34 0.9 12.2 0.00 0.00 0.00 9 1012.3
20260508204656 87 236 3.5 7.0 0.00 0.00 0.00 9 1012.4
20260508203649 87 291 5.2 13.0 0.00 0.00 0.00 9 1012.5
20260508202648 87 46 7.8 12.2 0.00 0.00 0.00 8 1012.6
20260508201658 87 318 0.0 11.3 0.00 0.00 0.00 8 1012.8
20260508200657 87 215 5.2 13.0 0.00 0.00 0.00 7 1012.8
20260508194704 86 343 2.6 11.3 0.00 0.00 0.00 8 1013.2
20260508193658 86 11 4.3 10.4 0.00 0.00 0.00 8 1013.3
20260508192647 86 348 8.7 13.0 0.00 0.00 0.00 8 1013.2
20260508191703 86 15 2.6 11.3 0.00 0.00 0.00 9 1013.4
20260508190654 86 28 5.2 8.7 0.00 0.00 0.00 9 1013.5
20260508185651 86 360 0.9 2.6 0.00 0.00 0.00 12 1013.5
20260508184657 85 306 0.9 7.8 0.00 0.00 0.00 12 1013.6
20260508182648 84 67 2.6 6.1 0.00 0.00 0.00 14 1013.8
20260508181646 83 135 0.9 8.7 0.00 0.00 0.00 14 1014.1
20260508180701 82 105 0.0 7.0 0.00 0.00 0.00 14 1014.2
20260508175647 81 360 0.9 7.8 0.00 0.00 0.00 15 1014.4
20260508174700 80 344 0.0 7.0 0.00 0.00 0.00 16 1014.5
20260508173656 80 321 6.1 9.6 0.00 0.00 0.00 16 1014.6
20260508172650 79 256 0.9 7.8 0.00 0.00 0.00 16 1014.7